Home   Weather   Sarnia   Past weeks

Flag for Canada Past Weather in Sarnia, Ontario, Canada — Yesterday and Last 2 Weeks

Now
48 °F

Sunny.


Feels Like: 45 °F
Forecast: 47 / 71 °F
Wind: 8 mph from Southeast

Location: Sarnia Airport

Current Time: Sep 25, 2016 at 8:23:55 AM

Latest Report: Sep 25, 2016 at 8:00 AM


Visibility: 9 mi

Pressure: 30.24 "Hg

Humidity: 82%

Dew Point: 43 °F

Location of SarniaLocation

Past Weather in Sarnia — Graph

°F

Sarnia Temperature Yesterday

Maximum temperature yesterday: 63 °F (at 1:00 PM)
Minimum temperature yesterday: 48 °F (at 7:00 AM)
Average temperature yesterday: 58 °F

High & Low Weather Summary for the Past Weeks

 TemperatureHumidityPressure
High84 °F (Sep 22, 2:00 PM)100% (Sep 17, 10:03 AM)30.33 "Hg (Sep 17, 10:03 AM)
Low46 °F (Sep 25, 4:00 AM)26% (Sep 21, 5:00 PM)29.71 "Hg (Sep 10, 5:00 PM)
Average66 °F75%30.09 "Hg
* Reported Sep 10 7:00 AM — Sep 25 7:00 AM, Sarnia, Weather by CustomWeather, © 2016

Note: Actual official high and low records may vary slightly from our data, if they occured in-between our weather recording intervals... More about our weather records

Advertising

Sarnia Weather History for the Previous 24 Hours

Scroll right to see more
 ConditionsComfort  
Time TempWeatherWind HumidityBarometerVisibility
7:00 AM
Sun, Sep 25
46 °FClear.7 mph87%30.23 "Hg9 mi
6:00 AM46 °FClear.7 mph87%30.22 "Hg9 mi
5:00 AM48 °FClear.9 mph82%30.22 "Hg9 mi
4:00 AM46 °FClear.8 mph82%30.23 "Hg9 mi
3:00 AM48 °FClear.5 mph76%30.24 "Hg9 mi
2:00 AM50 °FClear.7 mph71%30.25 "Hg9 mi
1:00 AM50 °FClear.5 mph76%30.24 "Hg9 mi
12:00 AM54 °FClear.2 mph77%30.24 "Hg9 mi
11:00 PM
Sat, Sep 24
54 °FClear.3 mph77%30.23 "Hg9 mi
10:00 PM55 °FClear.3 mph72%30.23 "Hg9 mi
9:00 PM55 °FClear.No wind72%30.23 "Hg9 mi
8:00 PM57 °FClear.No wind63%30.23 "Hg9 mi
7:00 PM59 °FPassing clouds.6 mph59%30.24 "Hg9 mi
6:00 PM63 °FSunny.12 mph52%30.23 "Hg9 mi
5:00 PM63 °FSunny.12 mph52%30.24 "Hg9 mi
4:00 PM63 °FSunny.12 mph52%30.24 "Hg9 mi
3:00 PM63 °FSunny.14 mph56%30.26 "Hg9 mi
2:00 PM63 °FSunny.12 mph56%30.27 "Hg9 mi
1:00 PM63 °FSunny.10 mph59%30.28 "Hg9 mi
12:00 PM61 °FSunny.12 mph63%30.29 "Hg9 mi
11:00 AM61 °FScattered clouds.12 mph63%30.29 "Hg9 mi
10:00 AM59 °FPassing clouds.12 mph68%30.29 "Hg9 mi
9:00 AM55 °FSunny.8 mph72%30.27 "Hg9 mi
8:00 AM52 °FSunny.9 mph82%30.26 "Hg9 mi
Weather by CustomWeather, © 2016

See weather overviewHow to use our weather pages